DB0TGO-13 Weather Reports


Display with metric or nautical units.
time (UTC)temp
F
wind
direction
speed
MPH
gust
MPH
rain 1hr
in
rain 24hr
in
rain mn
in
humidity
%
barometer
mb
20260904133010 75 240 14.0 0.0 0.00 0.00 0.00 61 999.8
20260904131509 75 230 11.0 0.0 0.00 0.00 0.00 62 1000.4
20260904130009 75 230 11.0 0.0 0.00 0.00 0.00 62 1000.4
20260904124509 74 230 11.0 0.0 0.00 0.00 0.00 62 1000.7
20260904123010 74 230 12.0 0.0 0.00 0.00 0.00 62 1000.7
20260904121509 74 230 12.0 0.0 0.00 0.00 0.00 63 1001.4
20260904120010 74 230 12.0 0.0 0.00 0.00 0.00 63 1001.4
20260904114510 75 230 12.0 0.0 0.00 0.00 0.00 62 1002.0
20260904113009 75 230 11.0 0.0 0.00 0.00 0.00 62 1002.0
20260904111509 73 230 11.0 0.0 0.00 0.00 0.00 65 1002.6
20260904110010 73 230 11.0 0.0 0.00 0.00 0.00 65 1002.6
20260904104510 73 230 11.0 0.0 0.00 0.00 0.00 67 1003.0
20260904103010 73 230 12.0 0.0 0.00 0.00 0.00 67 1003.0
20260904101510 72 230 12.0 0.0 0.00 0.00 0.00 67 1003.3
20260904100011 72 230 13.0 0.0 0.00 0.00 0.00 67 1003.3
20260904094511 73 230 13.0 0.0 0.00 0.00 0.00 67 1003.6
20260904093009 73 240 12.0 0.0 0.00 0.00 0.00 67 1003.6
20260904091510 71 240 12.0 0.0 0.00 0.00 0.00 71 1004.1
20260904090009 71 220 9.0 0.0 0.00 0.00 0.00 71 1004.1
20260904084510 69 220 8.0 0.0 0.00 0.00 0.00 74 1004.3
20260904083009 69 220 8.0 0.0 0.00 0.00 0.00 74 1004.3
20260904081508 66 220 8.0 0.0 0.00 0.00 0.00 77 1005.6
20260904073010 66 210 6.0 0.0 0.00 0.00 0.00 77 1005.6
20260904071509 66 210 6.0 0.0 0.00 0.00 0.00 77 1005.6
20260904070012 66 210 6.0 0.0 0.00 0.00 0.00 77 1005.6
20260904064509 66 210 6.0 0.0 0.00 0.00 0.00 78 1005.9
20260904063010 66 210 7.0 0.0 0.00 0.00 0.00 78 1005.9
20260904061510 65 210 7.0 0.0 0.00 0.00 0.00 79 1006.5
20260904060010 65 220 6.0 0.0 0.00 0.00 0.00 79 1006.5
20260904054510 65 220 6.0 0.0 0.00 0.00 0.00 81 1006.6
20260904053010 65 220 6.0 0.0 0.00 0.00 0.00 81 1006.6
20260904051509 65 210 7.0 0.0 0.00 0.00 0.00 80 1006.5
20260904050009 65 210 7.0 0.0 0.00 0.00 0.00 80 1006.5
20260904044509 64 210 5.0 0.0 0.00 0.00 0.00 80 1007.1
20260904043010 64 210 5.0 0.0 0.00 0.00 0.00 80 1007.1
20260904041510 64 220 4.0 0.0 0.00 0.00 0.00 78 1007.5
20260904040010 64 220 4.0 0.0 0.00 0.00 0.00 78 1007.5
20260904034509 65 240 4.0 0.0 0.00 0.00 0.00 76 1007.8
20260904033010 65 240 4.0 0.0 0.00 0.00 0.00 76 1007.8
20260904031509 65 230 5.0 0.0 0.00 0.00 0.00 76 1007.4
20260904030008 65 230 5.0 0.0 0.00 0.00 0.00 76 1007.4
20260903204510 67 230 8.0 0.0 0.00 0.00 0.00 71 1008.6
20260903203009 67 230 8.0 0.0 0.00 0.00 0.00 71 1008.6
20260903201510 67 230 8.0 0.0 0.00 0.00 0.00 72 1008.5
20260903200009 67 230 7.0 0.0 0.00 0.00 0.00 72 1008.5
20260903194510 67 230 7.0 0.0 0.00 0.00 0.00 75 1008.5
20260903193009 67 240 6.0 0.0 0.00 0.00 0.00 75 1008.5
20260903191509 66 240 6.0 0.0 0.00 0.00 0.00 77 1008.6
20260903190010 66 240 6.0 0.0 0.00 0.00 0.00 77 1008.6
20260903184509 67 240 6.0 0.0 0.00 0.00 0.00 78 1008.6
20260903183009 67 250 6.0 0.0 0.00 0.00 0.00 78 1008.6
20260903181509 66 250 6.0 0.0 0.00 0.00 0.00 81 1008.4
20260903180009 66 250 5.0 0.0 0.00 0.00 0.00 81 1008.4
20260903174509 66 270 4.0 0.0 0.00 0.00 0.00 84 1008.2
20260903173009 66 270 4.0 0.0 0.00 0.00 0.00 84 1008.2
20260903171509 65 270 4.0 0.0 0.00 0.00 0.00 85 1008.3
20260903170009 65 270 4.0 0.0 0.00 0.00 0.00 85 1008.3
20260903164509 65 270 4.0 0.0 0.00 0.00 0.00 85 1008.5
20260903163009 65 240 8.0 0.0 0.00 0.00 0.00 85 1008.5
20260903161509 72 240 8.0 0.0 0.00 0.00 0.00 55 1008.3
20260903160009 72 240 10.0 0.0 0.00 0.00 0.00 55 1008.3
20260903154509 73 250 10.0 0.0 0.00 0.00 0.00 53 1008.4
20260903153010 73 250 10.0 0.0 0.00 0.00 0.00 53 1008.4
20260903151509 72 250 10.0 0.0 0.00 0.00 0.00 54 1008.5
20260903150010 72 240 6.0 0.0 0.00 0.00 0.00 54 1008.5
20260903144509 71 240 6.0 0.0 0.00 0.00 0.00 59 1008.8
20260903143009 71 250 12.0 0.0 0.00 0.00 0.00 59 1008.8
20260903141510 73 250 12.0 0.0 0.00 0.00 0.00 50 1008.6
20260903140009 73 240 13.0 0.0 0.00 0.00 0.00 50 1008.6
20260903134510 73 240 13.0 0.0 0.00 0.00 0.00 51 1008.8